Temp
19 19 20 20 20 20 20 19 19 19 19 19 19 19 19 19 19 19 19 19 19 19 19 18 19 18 18 18 18 19 19 19 20 19 18 19 18 19 19 19 19 19 19
19 19 19 18 18 19 19 19 19 19 19 19 19 19 19 19 19 19 19 19 19 19 19 18 18 18 18 18 18 18 18 19 19 19 19 18 18 19 19 19 18 18 18
20 20 19 19 19 19 19 19 19 18 18 19 19 19 19 19 19 19 19 19 19 19 18 18 18 18 18 19 18 18 18 18 18 19 19 19 19 18 19 19 19 18 18
20 19 19 19 19 19 19 19 19 19 19 18 18 18 18 18 19 19 19 19 19 19 19 19 19 19 19 19 19 19 18 18 18 19 19 19 19 19 18 19 19 19 18
19 19 19 19 19 19 19 19 19 19 19 19 18 18 18 19 18 18 18 18 18 18 18 18 18 18 19 18 19 19 19 18 18 19 19 19 19 18 18 18 19 19 19
19 19 19 19 19 19 19 19 19 19 19 19 19 19 19 19 19 18 18 18 18 18 18 18 18 19 18 18 18 18 18 18 18 18 19 19 19 19 19 19 19 19 19
18 18 18 18 18 18 18 18 18 18 18 19 19 19 19 19 19 19 19 18 18 18 18 18 18 18 18 18 18 18 18 18 18 18 18 19 19 19 19 18 19 19 19
18 17 17 17 17 17 17 16 17 17 17 17 17 17 17 17 18 18 18 18 18 18 17 18 18 18 18 18 18 18 18 18 18 18 19 19 19 19 19 18 18 19 19
17 17 17 17 17 16 16 16 16 16 16 16 16 16 16 16 17 17 17 17 17 18 18 18 18 18 18 18 18 18 18 18 18 18 18 18 19 19 19 18 18 18 18
17 17 17 17 17 17 16 16 16 15 15 15 15 15 15 16 16 16 16 17 17 17 17 17 17 17 17 17 17 17 17 17 18 18 18 18 19 19 19 18 18 17 17
16 16 17 17 16 16 16 15 15 15 15 15 15 15 15 15 15 15 16 16 16 16 16 17 17 17 17 17 17 17 17 18 18 18 18 18 18 18 18 18 18 18 17
16 16 16 16 16 15 15 15 14 14 14 14 14 14 14 14 14 14 15 15 15 15 15 16 16 16 16 16 16 17 17 17 17 17 18 17 17 17 17 17 17 17 17
16 16 16 15 15 15 15 14 14 14 14 14 14 14 14 14 14 14 14 14 14 14 14 15 15 15 15 15 15 16 16 16 16 17 17 17 17 18 17 17 18 18 17
16 16 15 15 15 14 14 14 13 13 13 13 13 13 13 13 13 13 13 12 13 13 13 13 13 13 14 14 14 14 15 15 15 16 16 16 17 17 16 16 17 17 17
16 15 15 15 14 14 14 13 13 13 13 12 12 12 12 12 12 12 12 12 12 12 12 12 12 13 13 13 14 14 14 14 14 15 15 15 16 16 16 17 16 16 16
16 15 15 14 14 13 13 13 13 12 12 12 12 12 11 11 11 11 11 11 11 11 11 11 11 12 12 13 13 13 13 13 13 14 14 14 15 15 15 15 15 15 15
16 15 15 14 14 13 13 13 12 12 12 12 12 11 11 11 11 11 10 10 10 10 10 10 11 12 12 12 13 13 12 12 12 13 13 14 14 14 14 15 15 15 15
16 15 14 14 14 13 13 12 12 12 11 11 11 11 11 11 10 10 10 10 10 9 9 10 10 11 11 11 12 12 12 11 12 12 13 13 13 13 14 14 14 14 14
16 15 15 14 13 13 13 12 12 12 11 11 11 11 11 10 10 10 10 10 10 9 9 9 9 9 9 10 11 12 11 11 12 12 12 12 12 12 12 12 13 13 12
15 15 14 14 13 12 12 12 12 12 11 11 11 11 10 10 10 10 10 10 10 9 9 9 9 9 8 8 10 11 11 11 11 11 11 11 10 10 10 10 10 10 8
14 14 14 13 13 12 12 12 12 11 11 11 10 10 10 10 11 11 11 10 10 9 8 7 8 8 8 7 8 10 11 11 11 10 10 10 9 9 9 9 9 9 9
15 14 13 13 13 12 12 12 11 11 11 10 10 10 10 10 10 10 10 9 9 9 8 8 7 7 6 6 6 6 6 9 10 9 9 9 8 8 8 8 8 8 8
14 14 13 13 13 12 12 11 11 10 10 10 10 10 10 10 10 10 10 9 9 8 8 7 6 5 5 6 6 6 5 6 6 9 9 9 8 7 7 7 7 7 7
15 14 13 13 13 12 12 11 11 10 10 10 10 10 10 10 9 9 9 8 8 8 7 7 6 5 5 5 6 5 6 5 5 5 8 8 8 6 6 6 6 6 6
14 14 14 13 13 12 12 11 11 10 10 10 10 10 10 10 9 9 9 8 8 8 7 7 6 6 5 5 4 4 4 5 5 3 3 4 5 6 5 5 5 5 5
14 14 14 13 13 13 12 12 11 10 10 10 10 10 10 10 9 9 8 8 8 8 7 7 6 6 5 5 4 4 4 4 3 3 1 2 3 5 5 4 5 4 4
Height
838 838 837 836 836 836 835 835 834 834 833 832 832 831 831 830 830 829 828 828 827 826 826 825 825 824 824 823 823 822 821 820 820 819 819 820 820 819 819 818 818 818 817
837 838 838 837 837 836 836 836 835 835 834 833 832 831 831 830 829 829 828 827 827 826 826 825 825 824 823 822 822 822 821 820 820 819 819 819 819 819 819 819 819 818 818
837 838 839 838 838 837 836 836 836 835 834 833 833 832 831 830 829 829 827 827 826 825 825 824 824 823 822 822 821 821 820 820 819 819 819 818 818 819 819 819 819 819 818
837 839 839 839 838 837 837 836 836 835 834 833 833 832 831 830 829 828 827 826 825 825 824 823 822 822 821 821 820 820 819 819 818 818 817 817 817 818 818 818 817 818 818
839 840 840 840 839 838 838 837 836 835 834 833 832 831 830 829 828 828 826 825 824 823 823 822 821 821 820 819 819 818 817 817 817 816 816 816 816 816 816 816 816 816 816
840 841 841 840 840 839 838 837 836 834 833 832 831 830 829 828 828 827 826 825 824 823 822 821 820 819 818 817 817 816 816 815 816 815 815 814 814 814 814 814 815 815 815
840 841 841 841 840 839 838 837 836 834 833 831 830 829 828 827 826 825 824 823 823 822 821 820 819 818 817 817 816 815 814 814 813 813 813 813 812 812 812 813 812 812 812
840 841 841 841 840 839 838 837 836 834 833 831 830 829 827 826 825 823 823 822 822 821 820 819 818 817 816 815 814 813 813 812 812 811 810 810 810 810 810 810 810 810 810
840 840 840 840 840 839 838 837 836 834 833 831 830 829 827 826 824 823 822 821 820 819 818 817 816 815 814 813 812 811 811 810 810 809 808 807 807 807 806 807 807 807 807
841 840 840 840 839 839 838 837 835 834 833 831 830 828 827 825 824 822 821 820 819 818 817 816 815 813 812 811 810 809 808 806 806 806 805 804 804 803 803 804 804 804 804
841 840 840 840 839 838 837 836 835 834 833 831 830 828 826 825 823 821 820 819 818 817 816 815 813 812 811 810 808 807 805 804 803 802 802 802 801 801 800 799 799 800 800
840 840 840 839 838 838 837 836 835 833 832 830 829 827 826 824 823 821 820 818 817 816 815 814 812 811 809 808 806 805 804 803 802 801 800 799 798 798 797 796 796 796 796
839 840 840 839 839 838 837 835 834 833 831 830 829 827 826 824 822 821 819 817 816 815 814 812 810 809 807 806 805 803 802 801 800 799 798 797 795 794 794 793 793 792 792
839 840 840 839 839 838 837 835 834 832 831 830 829 827 825 823 822 820 819 817 816 814 813 811 809 807 806 804 803 801 800 798 797 796 795 794 793 792 791 790 789 789 788
839 839 839 839 838 837 836 835 834 833 832 830 829 827 825 823 822 820 818 817 816 814 811 809 807 806 804 802 800 798 797 795 794 793 791 790 789 788 788 786 786 786 785
837 837 838 838 837 836 835 835 834 833 832 831 829 827 825 823 822 820 818 817 815 813 811 809 807 805 802 800 798 796 795 793 791 790 788 787 786 785 784 783 782 781 780
834 836 837 837 836 835 835 835 834 833 833 831 830 828 826 824 822 821 819 817 815 814 812 809 807 805 802 799 797 795 793 791 789 788 787 785 784 783 782 780 779 777 776
832 834 835 835 835 835 834 834 834 834 833 832 830 828 826 824 823 821 819 817 816 814 812 809 806 803 801 798 795 793 792 790 788 787 785 784 782 781 779 778 776 773 771
831 832 833 834 834 834 833 833 833 832 832 832 830 828 826 824 823 821 819 817 815 814 812 809 806 803 800 797 794 791 791 790 789 787 785 784 783 781 778 776 774 771 769
831 832 833 834 834 833 832 832 832 831 830 830 830 828 826 824 822 820 819 817 815 813 811 808 806 804 801 797 793 790 790 790 789 787 785 784 782 780 778 776 773 770 768
830 831 832 833 833 832 831 830 830 831 830 829 828 827 825 823 821 819 817 815 814 813 811 809 807 804 801 798 794 790 790 790 789 788 787 785 783 781 779 776 773 770 768
829 831 831 832 831 831 830 829 829 828 828 827 826 825 824 822 820 819 817 816 814 812 811 809 807 805 804 801 800 797 795 791 788 787 785 784 783 782 780 778 775 772 769
828 829 829 830 830 830 828 827 828 827 827 826 825 823 822 821 819 818 816 815 813 811 809 808 808 807 806 804 802 802 801 798 793 786 785 784 783 783 781 778 775 773 770
827 827 828 828 828 827 826 826 825 825 824 823 822 821 820 819 818 818 817 815 813 812 810 809 808 807 806 805 804 803 803 802 799 792 786 784 784 783 781 779 776 774 770
826 826 826 826 825 824 823 824 823 823 822 821 821 820 819 818 817 816 814 814 812 811 809 807 806 805 805 805 805 805 804 803 802 801 794 786 782 781 780 779 777 775 773
825 823 823 822 820 820 820 819 819 819 818 818 817 816 816 815 814 813 812 811 810 808 807 806 805 805 804 803 803 803 802 802 801 801 800 792 788 780 779 778 776 775 773
Wind_Speed
9 8 6 8 7 7 6 6 5 4 4 5 4 4 5 5 5 6 6 5 5 4 3 3 4 4 4 4 5 5 4 4 1 1 0 1 1 1 1 1 2 3 3
11 10 8 9 9 8 8 7 6 5 4 3 4 5 4 4 5 5 5 5 5 5 4 4 5 5 5 4 5 6 6 6 4 3 4 3 3 3 3 2 2 3 2
9 8 8 8 8 7 7 6 5 5 4 4 4 4 4 5 5 6 7 6 6 6 6 6 6 6 7 6 6 7 7 7 6 5 5 6 6 5 4 5 3 2 2
8 8 8 7 7 6 6 5 5 5 5 4 4 5 5 6 6 7 8 7 7 7 7 8 8 8 8 8 8 8 9 8 8 7 7 7 8 7 9 8 6 6 6
10 8 7 6 6 6 5 5 5 5 5 5 5 5 6 6 7 7 8 7 7 8 9 10 10 9 10 10 10 10 11 10 10 8 8 8 7 10 11 11 9 7 8
12 9 7 6 5 6 6 6 6 6 6 6 6 7 7 7 8 8 8 8 9 9 10 10 11 11 11 11 11 11 11 10 12 12 10 10 11 9 9 11 11 10 10
11 9 7 5 4 5 6 7 8 7 7 8 8 8 9 9 9 9 9 9 10 10 11 11 12 12 13 12 13 13 12 12 13 14 14 13 13 12 10 12 15 13 13
9 7 5 4 4 4 5 7 9 8 8 8 8 9 8 9 9 8 7 8 10 11 11 13 14 14 14 14 14 14 14 14 15 16 17 17 15 16 16 13 18 17 15
7 5 3 3 3 4 6 8 8 7 8 9 8 9 8 8 7 7 7 7 10 12 12 13 13 13 14 14 15 15 15 16 17 18 18 20 20 20 19 17 19 20 17
5 4 3 4 5 5 6 7 6 6 7 7 7 9 9 7 7 7 7 8 9 9 9 10 11 12 11 11 13 15 15 16 17 19 19 21 21 22 21 20 19 22 20
5 3 4 5 6 6 7 7 6 5 6 6 8 9 9 8 8 7 7 7 7 8 8 7 7 10 10 9 9 10 12 11 12 13 16 20 21 21 20 19 22 21 23
5 2 3 5 6 8 7 7 6 5 6 6 6 8 9 8 8 7 6 7 7 7 7 8 9 10 11 11 11 12 12 12 11 11 12 13 17 20 20 20 21 23 25
6 2 2 5 7 8 8 7 6 6 5 5 6 9 9 8 8 8 8 8 9 10 11 12 12 13 13 14 14 14 14 14 14 13 12 12 13 13 14 16 19 22 25
8 2 1 4 6 7 8 7 6 6 6 6 8 10 10 9 10 10 10 10 11 13 14 15 14 13 13 12 13 15 15 16 16 16 16 15 15 15 14 14 15 15 20
8 4 1 3 5 5 6 6 5 6 6 8 8 8 8 10 11 10 9 11 13 14 14 14 13 13 14 15 14 15 15 14 13 13 14 15 16 17 18 18 17 17 17
10 6 2 2 4 5 5 4 4 5 6 8 6 6 9 10 11 10 10 12 13 15 13 11 12 14 13 13 14 13 13 13 14 13 14 14 12 11 11 13 14 17 18
11 6 3 3 4 5 4 3 4 4 4 6 7 8 9 9 9 9 9 11 12 13 13 11 12 13 13 13 15 14 14 15 13 11 13 12 11 11 11 12 14 15 15
12 9 4 3 4 5 3 2 3 4 3 6 7 8 7 8 7 6 7 9 11 10 12 12 15 15 14 16 19 15 14 13 12 13 10 10 11 11 12 14 16 19 20
13 10 6 4 3 3 2 1 2 3 4 7 8 7 6 6 6 6 6 8 9 9 10 12 13 16 17 20 18 15 9 10 11 11 12 13 15 16 16 15 13 15 17
12 7 5 4 3 3 3 2 3 5 6 6 7 6 6 6 6 6 7 7 8 8 9 11 12 14 13 21 16 12 7 8 11 12 12 15 17 18 17 18 19 20 17
10 6 5 5 5 5 4 3 5 7 7 7 8 6 6 6 6 6 7 7 8 9 10 11 13 14 14 22 12 12 5 6 12 12 13 16 17 17 17 19 20 19 18
8 7 7 7 7 7 6 5 5 7 8 9 9 8 7 7 7 8 8 9 9 10 9 10 11 10 8 15 8 4 3 3 4 4 9 13 18 14 16 17 19 20 20
8 8 10 9 9 10 8 8 8 9 10 11 12 10 9 9 8 8 8 8 8 9 9 9 9 8 7 8 7 4 3 2 7 4 6 10 17 12 14 15 18 20 22
9 9 11 12 12 12 10 11 10 12 13 13 12 12 11 10 10 9 10 9 9 9 9 9 8 6 4 4 3 3 3 5 3 4 5 7 18 11 14 12 16 19 22
10 11 12 13 15 14 14 14 13 15 16 15 14 14 13 12 12 11 10 10 9 9 9 9 8 6 5 3 2 3 4 6 5 2 4 6 21 10 11 11 13 17 22
10 12 15 17 19 18 18 17 18 18 17 17 16 16 16 15 14 14 13 12 11 10 9 9 8 8 6 5 4 4 4 4 4 3 3 4 9 9 16 5 10 15 20
Wind_Direction
84 94 93 87 85 85 85 82 77 68 58 44 29 13 13 13 6 7 11 12 14 14 6 9 1 348 353 353 350 357 353 353 318 239 95 95 133 152 185 190 245 154 151
115 107 88 84 84 83 77 73 67 59 50 35 25 20 360 354 344 342 344 346 351 354 348 337 330 333 340 323 321 329 335 332 328 285 252 247 263 275 263 248 118 163 177
107 104 96 89 88 86 84 82 80 65 48 29 12 1 350 339 332 328 322 324 327 329 331 329 319 317 319 312 306 304 316 317 313 301 272 258 259 260 256 258 249 237 223
126 116 99 93 86 78 72 63 55 46 40 31 20 3 357 339 329 328 324 318 313 311 310 315 311 312 310 304 301 298 294 295 300 295 279 268 262 264 255 252 252 255 255
122 110 99 86 78 68 55 40 31 23 16 11 4 355 351 343 338 335 329 322 315 308 306 309 309 305 305 307 305 301 296 285 284 291 279 268 265 279 263 244 252 260 262
113 104 89 81 67 57 39 21 6 356 347 340 335 329 328 327 322 324 325 323 315 311 308 309 307 305 308 307 307 305 303 287 285 285 285 269 264 281 269 254 258 268 267
119 105 89 80 65 46 27 13 5 357 349 340 334 328 327 325 319 318 319 319 316 314 311 308 307 306 306 304 302 300 300 294 283 284 283 282 271 266 265 260 257 269 269
125 117 104 78 66 34 16 16 4 358 0 354 354 351 352 349 347 333 325 320 323 324 322 319 316 313 309 305 302 304 301 297 291 286 284 282 278 270 266 269 254 262 262
133 132 101 62 31 8 1 3 357 7 9 9 2 356 353 351 356 12 1 341 325 320 319 322 325 322 316 311 312 311 304 297 292 288 287 285 282 275 267 266 260 255 260
122 98 63 35 24 1 349 348 1 10 12 6 11 355 350 342 349 352 345 356 1 332 324 325 335 337 325 325 322 322 318 303 292 288 288 286 285 284 281 273 272 256 253
128 84 42 20 17 11 357 2 6 18 13 13 8 358 359 0 353 345 346 354 0 12 12 359 353 350 351 347 348 351 354 353 337 316 305 305 293 291 287 279 268 261 254
158 99 21 10 11 8 4 5 10 14 23 14 14 359 355 1 7 6 11 9 359 354 349 344 342 336 333 334 328 329 335 337 339 346 340 323 308 299 297 285 276 269 263
168 151 16 6 7 4 6 9 12 16 358 2 4 358 350 351 357 359 355 349 343 341 337 330 323 326 327 326 321 320 317 315 317 319 323 326 325 321 313 310 295 289 278
172 165 7 360 358 2 7 9 17 14 360 5 4 354 349 359 9 11 10 2 353 348 341 341 340 337 333 330 329 323 318 314 313 311 309 310 309 316 325 335 324 319 291
178 184 251 349 348 357 1 9 12 11 7 359 345 348 354 4 6 7 5 357 353 346 343 342 340 339 335 332 331 328 326 326 324 324 323 319 315 309 308 312 320 320 316
187 195 199 328 337 348 358 9 2 13 10 360 17 14 4 5 6 12 8 3 5 9 7 3 359 352 347 339 336 334 328 325 327 334 335 329 330 329 322 324 320 312 308
184 185 212 292 325 338 347 357 360 358 0 4 9 2 2 7 13 17 14 12 14 15 16 11 7 2 353 349 348 345 348 347 347 0 1 3 357 359 351 338 326 319 307
189 193 203 272 314 338 339 353 348 329 309 343 351 350 360 9 14 15 11 9 8 5 7 9 4 3 359 353 348 351 354 24 43 31 38 36 21 5 348 340 333 319 309
193 203 218 251 293 319 313 285 262 278 284 320 335 343 356 2 8 11 8 4 2 2 4 4 5 3 355 351 346 346 11 28 32 46 52 31 23 19 14 1 347 344 337
190 207 229 253 280 303 301 279 270 245 256 289 315 328 339 352 1 4 2 355 353 353 357 1 360 2 2 353 342 344 23 75 61 71 44 36 33 25 22 21 19 17 12
190 215 237 251 270 284 283 259 235 223 255 272 295 300 315 330 340 347 346 343 347 353 2 3 3 360 359 1 354 350 24 156 49 51 30 27 27 30 28 25 25 19 15
211 229 245 246 264 266 266 262 255 251 263 267 273 275 302 317 330 337 345 349 348 352 353 360 6 6 356 11 2 327 351 332 305 30 17 20 15 21 20 20 23 21 17
227 253 251 255 259 260 264 261 259 259 258 260 259 263 290 301 311 321 328 332 336 338 347 357 2 10 3 3 33 32 348 312 336 322 356 356 6 3 9 15 19 18 13
259 262 249 253 257 262 261 257 255 254 257 262 264 265 280 287 297 310 319 325 330 334 339 346 347 353 356 359 348 324 275 297 328 318 306 330 343 336 350 0 9 12 13
264 262 259 255 260 263 259 259 259 258 262 269 270 274 278 281 286 292 299 305 314 318 322 325 327 329 332 321 314 326 300 286 280 320 305 325 333 339 321 340 5 6 8
265 263 260 258 267 264 259 257 257 259 261 262 264 269 274 276 277 279 283 287 299 305 307 310 315 318 315 307 292 271 250 240 231 255 287 310 295 318 317 306 358 2 360